This is the latest recevied weather packets stored in our database for station/object SQ5DCP-1. If no packets are shown the sender has not sent any weather packets the latest 10 day(s).
| Time | Temp. | Humidity | Pressure | Rain* | Wind** | Luminosity | Snow |
|---|---|---|---|---|---|---|---|
| 1777567518 | 11.11° C | 27% | 1027.6 hPa | 0 mm | - | - | - |
| 1777567216 | 11.11° C | 27% | 1027.5 hPa | 0 mm | - | - | - |
| 1777566934 | 11.11° C | 26% | 1027.5 hPa | 0 mm | - | - | - |
| 1777566633 | 11.11° C | 25% | 1027.5 hPa | 0 mm | - | - | - |
| 1777566331 | 11.67° C | 25% | 1027.5 hPa | 0 mm | - | - | - |
| 1777566029 | 11.67° C | 26% | 1027.6 hPa | 0 mm | - | - | - |
| 1777565726 | 11.67° C | 26% | 1027.6 hPa | 0 mm | - | - | - |
| 1777565423 | 11.67° C | 26% | 1027.5 hPa | 0 mm | - | - | - |
| 1777565121 | 11.67° C | 25% | 1027.6 hPa | 0 mm | - | - | - |
| 1777564819 | 11.67° C | 25% | 1027.6 hPa | 0 mm | - | - | - |
| 1777564516 | 12.22° C | 24% | 1027.6 hPa | 0 mm | - | - | - |
| 1777564235 | 12.22° C | 23% | 1027.7 hPa | 0 mm | - | - | - |
| 1777563932 | 12.78° C | 23% | 1027.7 hPa | 0 mm | - | - | - |
| 1777563631 | 12.78° C | 23% | 1027.5 hPa | 0 mm | - | - | - |
| 1777563328 | 12.78° C | 23% | 1027.6 hPa | 0 mm | - | - | - |
| 1777563027 | 12.78° C | 23% | 1027.6 hPa | 0 mm | - | - | - |
| 1777562724 | 12.78° C | 22% | 1027.5 hPa | 0 mm | - | - | - |
| 1777562422 | 12.78° C | 23% | 1027.5 hPa | 0 mm | - | - | - |
| 1777562119 | 12.78° C | 23% | 1027.6 hPa | 0 mm | - | - | - |
| 1777561817 | 12.22° C | 24% | 1027.5 hPa | 0 mm | - | - | - |
| 1777561536 | 12.22° C | 24% | 1027.7 hPa | 0 mm | - | - | - |
| 1777561234 | 11.67° C | 24% | 1027.6 hPa | 0 mm | - | - | - |
| 1777560932 | 11.67° C | 24% | 1027.7 hPa | 0 mm | - | - | - |
| 1777560630 | 12.22° C | 24% | 1027.8 hPa | 0 mm | - | - | - |
| 1777560328 | 12.22° C | 25% | 1027.7 hPa | 0 mm | - | - | - |
* Rain latest hour (hover to see other rain measurements)
** Current wind speed in m/s (hover to see current wind gust speed)